Buffalo, NY

10:14 PM EDT on April 23, 2017 (GMT -0400)
Buffalo Niagara International

Weather History for KBUF - August, 2014

Change the Weather History Date:

Wednesday, August 27, 2014

  Actual Average Record
Temperature  
Mean Temperature 70 °F 68 °F  
Max Temperature 78 °F 77 °F 99 °F (1948)
Min Temperature 62 °F 59 °F 46 °F (1969)
Degree Days  
Heating Degree Days 0 1  
Month to date heating degree days 10 12  
Since 1 June heating degree days 48 85  
Since 1 July heating degree days 20 21  
Cooling Degree Days 5 4  
Month to date cooling degree days 128 145  
Year to date cooling degree days 429 471  
Since 1 June cooling degree days 406 445  
Growing Degree Days 21 (Base 50)    
Moisture  
Dew Point 60 °F    
Average Humidity 65    
Maximum Humidity 84    
Minimum Humidity 45    
Precipitation  
Precipitation T in 0.10 in 3.21 in (1871)
Month to date precipitation 2.45 2.85  
Year to date precipitation 29.23 24.75  
Snow  
Snow 0.00 in 0.00 in 0.00 in ()
Month to date snowfall 0.0 0.0  
Since 1 June snowfall 0.0 0.0  
Since 1 July snowfall 0.0 0.0  
Snow Depth 0.00 in    
Sea Level Pressure  
Sea Level Pressure 30.03 in    
Wind  
Wind Speed 9 mph (NW)    
Max Wind Speed 17 mph    
Max Gust Speed 21 mph    
Visibility 10 miles    
Events      
T = Trace of Precipitation, MM = Missing Value Source: NWS Daily Summary

Daily Weather History Graph

Daily Weather History Graph

Search for Another Location

Airport or City:

Trip Planner

Search our weather history database for the weather conditions in past years. The results will help you decide how hot, cold, wet, or windy it might be!

Date:

Astronomy

Aug. 27, 2014 Rise Set
Actual Time 6:33 AM EDT 7:58 PM EDT
Civil Twilight 6:04 AM EDT 8:27 PM EDT
Nautical Twilight 5:28 AM EDT 9:02 PM EDT
Astronomical Twilight 4:50 AM EDT 9:40 PM EDT
Moon 8:32 AM EDT (8/27) 8:44 PM EDT (8/27)
Length of Visible Light 14h 23m
Length of Day
13h 24m
Waxing Crescent, 4% of the Moon is Illuminated
Aug 27
Waxing Crescent
Sep 2
First Quarter
Sep 8
Full
Sep 15
Last Quarter
Sep 24
New

Hourly Weather History & Observations

Time (EDT) Temp. Dew Point Humidity Pressure Visibility Wind Dir Wind Speed Gust Speed Precip Events Conditions
12:54 AM 73.4 °F 66.2 °F 78% 30.01 in 10.0 mi SSW 5.8 mph - N/A   Mostly Cloudy
1:54 AM 75.0 °F 66.9 °F 76% 30.00 in 10.0 mi SW 5.8 mph - N/A   Mostly Cloudy
2:54 AM 75.0 °F 68.0 °F 79% 30.00 in 10.0 mi SW 8.1 mph - N/A   Overcast
3:54 AM 73.0 °F 68.0 °F 84% 30.01 in 10.0 mi WSW 10.4 mph - 0.00 in   Overcast
4:01 AM 73.0 °F 68.0 °F 84% 30.02 in 10.0 mi WSW 9.2 mph - N/A   Overcast
4:54 AM 72.0 °F 64.9 °F 78% 30.02 in 10.0 mi North 8.1 mph - N/A   Overcast
5:12 AM 71.1 °F 64.9 °F 81% 30.04 in 10.0 mi North 8.1 mph - 0.00 in   Overcast
5:54 AM 71.1 °F 61.0 °F 70% 30.04 in 10.0 mi North 8.1 mph - 0.00 in   Overcast
6:54 AM 70.0 °F 60.1 °F 71% 30.04 in 10.0 mi North 5.8 mph - N/A   Overcast
7:54 AM 70.0 °F 60.1 °F 71% 30.05 in 10.0 mi NNW 4.6 mph - N/A   Mostly Cloudy
8:54 AM 71.1 °F 57.9 °F 63% 30.04 in 10.0 mi NNW 3.5 mph - N/A   Mostly Cloudy
9:54 AM 69.1 °F 59.0 °F 70% 30.06 in 10.0 mi North 10.4 mph - N/A   Mostly Cloudy
10:51 AM 69.8 °F 57.2 °F 64% 30.07 in 10.0 mi North 5.8 mph - N/A   Mostly Cloudy
10:54 AM 69.8 °F 57.2 °F 64% 30.06 in 10.0 mi NNW 8.1 mph - N/A   Mostly Cloudy
11:54 AM 73.0 °F 57.9 °F 59% 30.04 in 10.0 mi WNW 6.9 mph - N/A   Mostly Cloudy
12:54 PM 75.0 °F 57.9 °F 55% 30.04 in 10.0 mi NW 8.1 mph - N/A   Scattered Clouds
1:54 PM 77.0 °F 57.9 °F 52% 30.03 in 10.0 mi WNW 12.7 mph 20.7 mph N/A   Mostly Cloudy
2:54 PM 78.1 °F 55.9 °F 46% 30.01 in 10.0 mi WNW 11.5 mph 19.6 mph N/A   Scattered Clouds
3:54 PM 75.0 °F 60.1 °F 60% 30.00 in 10.0 mi WSW 10.4 mph - N/A   Mostly Cloudy
4:54 PM 75.0 °F 60.1 °F 60% 30.01 in 10.0 mi WSW 15.0 mph - N/A   Mostly Cloudy
5:54 PM 73.9 °F 60.1 °F 62% 30.01 in 10.0 mi SW 9.2 mph - N/A   Mostly Cloudy
6:54 PM 73.9 °F 55.0 °F 52% 30.01 in 10.0 mi NNW 15.0 mph 20.7 mph N/A   Scattered Clouds
7:54 PM 70.0 °F 54.0 °F 57% 30.01 in 10.0 mi NNW 9.2 mph - N/A   Partly Cloudy
8:54 PM 66.9 °F 57.0 °F 70% 30.04 in 10.0 mi North 10.4 mph 17.3 mph N/A   Partly Cloudy
9:54 PM 64.9 °F 55.9 °F 73% 30.06 in 10.0 mi North 3.5 mph - N/A   Partly Cloudy
10:54 PM 64.0 °F 55.9 °F 75% 30.06 in 10.0 mi North 6.9 mph - N/A   Scattered Clouds
11:54 PM 64.0 °F 54.0 °F 70% 30.06 in 10.0 mi North 8.1 mph - N/A   Mostly Cloudy